EHI
0 0 0 0 0 0 0 0 0 0 0 0 0 0 0 0 0 0 0 0 0 0 0 0 0 0 0 0 0 0 0 0 0 0 0 0 0 0
0 0 0 0 0 0 0 0 0 0 0 0 0 0 0 0 0 0 0 0 0 0 0 0 0 0 0 0 0 0 0 0 0 0 0 0 0 0
0 0 0 0 0 0 0 0 0 0 0 0 0 0 0 0 0 0 0 0 0 0 0 0 0 0 0 0 0 0 0 0 0 0 0 0 0 0
0 0 0 0 0 0 0 0 0 0 0 0 0 0 0 0 0 0 0 0 0 0 0 0 0 0 0 0 0 0 0 0 0 0 0 0 0 0
1 1 0 0 0 0 0 0 0 0 0 0 0 0 0 0 0 0 0 0 0 0 0 0 0 0 0 0 0 0 0 0 0 0 0 0 0 0
3 3 1 0 0 0 0 0 0 0 0 0 0 0 0 1 1 1 1 0 0 0 0 0 0 0 0 0 0 0 0 0 0 0 0 0 0 0
7 6 3 1 0 0 0 0 0 0 0 0 1 1 3 4 3 2 2 1 1 0 0 0 0 0 0 0 0 0 0 0 0 0 0 0 0 0
10 8 4 1 0 0 0 0 0 0 0 0 1 3 5 6 5 3 2 1 1 1 1 0 0 0 0 0 0 0 0 0 0 0 0 0 0 0
7 7 5 2 1 1 1 0 0 0 0 0 1 2 4 6 6 5 4 3 2 3 2 1 0 0 1 0 0 0 0 0 0 0 0 0 0 0
3 4 4 3 2 2 1 1 1 0 0 0 0 0 2 4 5 6 6 5 4 4 4 2 0 0 0 0 0 0 0 0 0 0 0 0 0 0
0 1 2 2 2 1 1 2 2 2 1 0 0 0 0 2 3 5 6 5 4 4 6 5 2 0 0 0 0 0 0 0 0 0 0 0 0 0
0 0 1 1 1 0 0 1 2 3 3 2 1 1 1 1 2 3 4 5 4 4 6 5 3 1 1 0 0 0 0 0 0 0 0 0 0 0
0 0 0 0 0 0 0 0 1 2 2 2 2 2 2 3 4 4 5 6 5 4 4 4 3 3 2 1 0 0 0 0 0 0 0 0 0 0
0 0 0 0 0 0 0 0 0 0 1 1 2 3 3 4 5 5 5 5 5 3 2 2 2 2 2 1 0 0 0 1 1 0 0 0 0 0
0 0 0 0 0 0 0 0 0 0 0 0 1 2 3 3 3 3 3 3 3 1 1 1 1 1 1 1 0 0 0 1 1 1 0 0 0 1
0 0 0 0 0 0 0 0 0 0 0 0 0 1 2 2 1 1 1 1 1 0 0 0 0 0 0 0 0 0 0 1 1 1 1 0 0 1
0 0 0 0 0 0 0 0 0 0 0 0 0 0 1 1 0 0 0 0 0 0 0 0 0 0 0 0 0 0 0 0 0 0 0 0 0 1
0 0 0 0 0 0 0 0 0 0 0 0 0 0 0 0 0 0 0 0 0 0 0 0 0 0 0 0 0 0 0 0 0 0 0 0 0 0
0 0 0 0 0 0 0 0 0 0 0 0 0 0 0 0 0 0 0 0 0 0 0 0 0 0 0 0 0 0 0 0 0 0 0 0 0 0
0 0 0 0 0 0 0 0 0 0 0 0 0 0 0 0 0 0 0 0 0 0 0 0 0 0 0 0 0 0 0 0 0 0 0 0 0 0
0 0 0 0 0 0 0 0 0 0 0 0 0 0 0 0 0 0 0 0 0 0 0 0 0 0 0 0 0 0 0 0 0 0 0 0 0 0
0 0 0 0 0 0 0 0 0 0 0 0 0 0 0 0 0 0 0 0 0 0 0 0 0 0 0 0 0 0 0 0 0 0 0 0 0 0
0 0 0 0 0 0 0 0 0 0 0 0 0 0 0 0 0 0 0 0 0 0 0 0 0 0 0 0 0 0 0 0 0 0 0 0 0 0
Wind_Speed
5 6 5 3 4 3 4 5 5 5 4 5 5 4 4 4 5 6 6 8 8 8 8 7 7 8 8 8 8 8 8 8 8 8 8 9 10 11
4 4 5 5 3 4 4 4 5 6 5 2 3 4 2 4 6 7 7 7 10 10 10 10 10 10 10 10 10 10 10 10 10 10 10 10 10 11
7 7 7 6 5 5 5 5 5 5 6 5 3 3 4 7 5 6 8 8 9 14 13 11 11 11 11 12 12 12 12 12 12 12 12 12 12 12
9 8 8 7 7 7 5 6 5 5 7 7 5 5 7 7 7 7 8 8 8 10 14 13 13 13 13 13 13 13 13 13 13 13 13 13 13 13
9 9 9 8 8 7 7 7 6 6 7 7 7 5 6 6 7 8 10 7 9 8 13 15 15 15 14 14 14 14 14 14 14 14 14 14 14 14
8 8 9 9 9 8 8 8 8 7 7 8 8 7 6 7 6 7 8 7 8 8 7 8 11 15 16 16 16 16 15 15 15 15 15 15 15 15
8 8 8 6 5 5 6 6 7 7 7 8 8 8 7 6 6 6 7 7 7 8 8 8 8 9 11 15 18 17 16 15 15 15 16 16 16 16
7 7 6 5 6 6 7 7 7 8 9 8 8 8 7 7 6 7 7 8 8 5 6 8 8 9 8 10 9 12 15 15 15 15 16 16 16 16
3 3 4 3 3 5 7 9 9 8 8 9 10 9 8 6 6 9 8 9 9 8 7 10 10 10 10 9 8 10 12 14 15 15 16 16 16 16
1 1 2 2 2 4 6 6 6 6 7 7 7 8 7 6 6 8 10 10 11 10 9 11 10 11 10 9 8 12 14 15 16 16 16 16 16 17
1 2 1 1 5 5 5 5 6 5 3 3 5 6 7 7 7 7 8 9 10 10 7 9 10 11 11 11 10 12 15 16 16 16 17 17 17 16
2 4 7 6 5 5 4 4 5 5 5 4 4 6 7 7 8 8 8 9 10 10 7 6 9 10 11 10 9 8 9 13 17 18 18 18 17 13
3 3 5 7 6 5 4 3 4 6 6 6 5 5 5 5 5 5 6 7 9 9 8 7 9 10 11 11 10 10 10 11 10 12 15 18 18 15
3 3 4 5 4 3 2 3 5 6 6 5 5 5 5 5 4 6 7 8 9 11 11 10 10 10 12 13 12 11 10 10 11 12 12 11 14 18
3 3 1 2 4 3 2 3 6 5 4 5 5 5 5 5 6 6 8 8 10 11 11 11 11 11 11 13 13 12 12 11 11 12 12 12 12 11
3 1 6 6 5 3 3 4 4 3 5 6 6 6 6 6 6 7 7 7 8 9 9 9 11 12 12 13 13 13 12 12 11 12 12 12 12 12
8 5 3 3 3 3 4 4 4 4 4 5 6 7 7 7 7 7 7 8 9 9 9 8 9 9 11 12 13 13 13 12 12 11 11 13 13 13
8 4 4 5 5 5 6 5 5 5 6 7 7 7 7 7 8 8 8 8 9 9 9 9 10 10 11 11 11 13 12 12 11 11 12 14 14 13
5 4 5 5 6 6 6 6 6 6 6 7 7 7 7 8 8 8 8 8 9 9 10 10 10 10 12 13 11 9 12 12 13 13 12 13 14 14
5 6 6 6 6 6 6 7 7 7 6 6 7 7 7 8 8 9 9 10 10 11 11 10 10 9 11 12 13 14 14 14 13 13 13 13 14 15
6 6 6 6 7 7 7 7 8 7 8 8 7 8 8 8 8 9 9 11 11 10 11 11 10 12 12 11 12 13 13 13 12 13 15 14 15 14
6 7 6 7 7 7 7 7 8 8 8 8 8 8 8 8 9 11 10 10 9 10 12 11 12 11 10 11 13 15 16 14 13 15 18 18 14 13
6 6 6 7 6 6 7 8 9 8 8 8 8 8 9 9 9 9 10 10 10 11 12 11 11 10 11 11 12 13 16 16 13 12 12 13 18 22
Wind_Direction
217 208 236 227 240 253 260 268 275 269 237 187 220 197 219 226 161 224 229 186 203 224 232 237 242 245 247 248 250 253 256 256 257 256 254 251 253 253
240 241 243 240 229 237 244 249 261 275 282 242 212 206 215 247 185 233 244 184 208 223 231 236 241 245 247 248 249 250 250 251 251 251 250 248 248 250
221 221 228 252 246 236 232 238 241 250 261 261 232 208 220 257 233 239 245 239 229 206 218 230 237 242 244 246 247 249 249 249 249 249 249 248 247 246
224 225 228 224 227 249 246 243 244 251 258 265 261 234 218 233 243 250 253 244 253 199 202 221 232 238 240 242 244 245 246 247 247 247 247 248 248 247
229 227 230 232 230 234 239 246 241 233 239 255 255 254 245 235 237 242 248 253 262 231 204 215 225 234 239 240 241 242 243 244 245 245 245 246 246 246
232 233 234 234 234 237 237 242 250 251 240 248 255 249 241 236 239 251 251 234 249 263 256 240 225 223 232 236 237 238 239 241 243 244 245 245 245 245
229 232 234 238 254 255 260 248 243 245 247 246 251 254 250 246 249 256 264 269 258 258 261 258 244 238 228 227 229 233 235 237 240 242 243 244 244 245
229 229 229 220 231 235 262 276 278 262 263 265 263 264 270 270 271 274 276 274 274 267 268 270 269 267 262 260 236 214 223 233 239 242 243 244 244 244
239 241 246 233 234 245 232 232 245 249 257 269 275 279 285 286 288 277 274 278 281 289 283 275 273 270 267 264 228 218 226 234 241 245 246 246 246 246
273 268 267 294 322 305 275 260 254 244 239 241 263 274 285 298 285 278 281 275 269 261 257 267 272 273 274 272 241 220 228 235 241 245 248 249 248 248
21 31 3 20 25 342 288 276 273 270 241 238 271 276 286 280 279 278 273 272 274 274 263 265 276 281 280 276 265 229 226 233 239 243 245 247 248 250
69 74 61 42 30 357 313 300 293 303 307 290 260 252 257 249 230 246 267 272 278 281 283 280 281 287 284 279 280 278 254 241 237 239 240 242 242 248
35 36 57 48 35 16 347 342 337 317 298 288 283 279 274 272 263 258 268 277 281 280 294 301 290 285 281 283 283 282 280 278 268 254 239 236 234 234
27 20 49 38 16 354 351 2 318 290 282 287 287 288 289 289 291 292 288 283 278 279 286 288 281 280 282 282 282 283 281 282 281 279 277 259 234 228
37 65 19 310 284 241 175 265 277 278 297 296 296 299 301 302 297 286 275 268 265 264 265 264 267 272 273 277 282 283 284 282 281 279 278 275 271 260
3 191 206 224 247 271 261 249 277 318 314 303 303 303 301 298 293 296 296 295 290 286 278 272 269 274 276 278 280 281 281 280 280 278 280 280 276 271
325 304 320 331 324 333 331 334 324 319 311 313 310 308 307 304 302 304 301 298 294 295 297 293 283 274 271 276 278 278 280 279 278 280 278 276 274 272
307 330 348 343 339 340 336 334 335 338 336 326 319 315 313 310 307 306 302 299 297 296 297 300 298 292 284 272 259 273 278 281 285 283 280 278 277 276
311 356 353 345 341 339 337 334 334 335 328 318 316 316 314 310 307 304 302 300 298 298 299 298 294 291 290 289 288 277 291 293 291 285 280 277 278 279
1 358 350 346 344 341 336 333 329 326 322 319 316 314 312 310 307 305 304 304 304 302 299 295 291 293 293 295 296 293 282 279 284 286 286 284 281 279
1 357 354 350 345 340 335 330 326 324 326 321 318 318 315 310 306 305 303 303 297 293 293 293 298 300 293 286 281 282 286 279 275 278 285 285 284 282
358 353 349 343 339 336 332 331 328 326 324 320 319 316 313 309 306 304 301 300 296 294 295 294 296 295 290 285 285 288 291 292 283 265 256 257 269 276
354 345 339 338 339 337 336 332 327 324 325 323 319 315 311 307 304 299 296 294 294 294 294 295 295 294 291 287 287 289 293 297 295 293 284 265 250 251